Location: Murdochville
(48.9591°N, 65.4950°W)
Time: 21:33:50
(UTC-04:00)

Envisat - Pass Details

Date: 26 April 2026
Orbit: 761 x 762 km, 98.4° (Epoch: 15 May)

Event Time Altitude Azimuth Distance (km) Brightness Sun altitude
Rises 01:59:29 0° 25° (NNE) 3,234 7.7 -23.7°
Reaches altitude 10° 02:02:16 10° 40° (NE) 2,303 6.5 -23.5°
Maximum altitude 02:06:15 23° 92° (E) 1,589 4.9 -23.2°
Enters shadow 02:09:15 14° 135° (SE) 2,024 5.0 -23.0°
